CW2613 Weather Reports


Display with metric or nautical units.
time (UTC)temp
F
wind
direction
speed
MPH
gust
MPH
rain 1hr
in
rain 24hr
in
rain mn
in
humidity
%
barometer
mb
20260905210013 92 220 0.0 0.0 0.00 0.00 0.00 61 1010.5
20260905204510 92 173 0.0 1.0 0.00 0.00 0.00 61 1010.3
20260905203002 93 158 0.0 0.0 0.00 0.00 0.00 60 1010.3
20260905201600 94 215 0.0 0.0 0.00 0.00 0.00 59 1010.3
20260905200057 93 184 0.0 1.0 0.00 0.00 0.00 59 1010.4
20260905194549 92 163 0.0 1.0 0.00 0.00 0.00 60 1010.9
20260905193047 93 188 0.0 4.0 0.00 0.00 0.00 60 1011.0
20260905191543 94 193 0.0 0.0 0.00 0.00 0.00 54 1011.4
20260905190046 94 139 0.0 0.0 0.00 0.00 0.00 56 1011.2
20260905184539 94 157 0.0 0.0 0.00 0.00 0.00 56 1011.3
20260905183028 94 110 0.0 0.0 0.00 0.00 0.00 55 1011.6
20260905181521 94 131 0.0 0.0 0.00 0.00 0.00 57 1011.5
20260905180019 93 149 0.0 0.0 0.00 0.00 0.00 59 1011.8
20260905174514 92 99 0.0 0.0 0.00 0.00 0.00 61 1012.0
20260905173010 93 172 0.0 0.0 0.00 0.00 0.00 61 1012.1
20260905171503 92 168 0.0 3.0 0.00 0.00 0.00 61 1012.2
20260905170101 91 148 0.0 1.0 0.00 0.00 0.00 61 1012.1
20260905164554 91 139 0.0 1.0 0.00 0.00 0.00 60 1012.2
20260905163049 91 143 0.0 1.0 0.00 0.00 0.00 60 1012.6
20260905161545 90 152 0.0 2.0 0.00 0.00 0.00 59 1012.8
20260905160042 89 151 0.0 1.0 0.00 0.00 0.00 60 1013.0
20260905154535 89 165 0.0 0.0 0.00 0.00 0.00 57 1013.2
20260905153044 90 181 0.0 0.0 0.00 0.00 0.00 60 1013.2
20260905151526 90 165 0.0 0.0 0.00 0.00 0.00 55 1013.3
20260905150022 90 153 0.0 0.0 0.00 0.00 0.00 57 1013.5
20260905144524 89 161 0.0 0.0 0.00 0.00 0.00 53 1013.5
20260905143012 89 174 0.0 0.0 0.00 0.00 0.00 54 1013.5
20260905141508 88 130 0.0 0.0 0.00 0.00 0.00 46 1013.5
20260905140004 87 172 0.0 0.0 0.00 0.00 0.00 36 1013.3
20260905134559 87 187 0.0 0.0 0.00 0.00 0.00 26 1013.4
20260905133055 86 171 0.0 0.0 0.00 0.00 0.00 7 1013.6
20260905131607 84 214 0.0 0.0 0.00 0.00 0.00 1 1013.5
20260905130045 83 163 0.0 0.0 0.00 0.00 0.00 1 1013.4
20260905124541 81 187 0.0 0.0 0.00 0.00 0.00 1 1013.4
20260905123036 79 187 0.0 0.0 0.00 0.00 0.00 1 1013.4
20260905121532 0 0.0 0.0 0.00 0.00 0.00 1013.2
20260905120028 0 0.0 0.0 0.00 0.00 0.00 1013.3
20260905114526 0 0.0 0.0 0.00 0.00 0.00 1013.1
20260905113019 0 0.0 0.0 0.00 0.00 0.00 1012.8
20260905111517 0 0.0 0.0 0.00 0.00 0.00 1012.7
20260905110010 0 0.0 0.0 0.00 0.00 0.00 1012.6
20260905104505 0 0.0 0.0 0.00 0.00 0.00 1012.6
20260905103002 0 0.0 0.0 0.00 0.00 0.00 1012.5
20260905101556 0 0.0 0.0 0.00 0.00 0.00 1012.5
20260905100113 0 0.0 0.0 0.00 0.00 0.00 1012.4
20260905094548 0 0.0 0.0 0.00 0.00 0.00 1012.3
20260905093044 0 0.0 0.0 0.00 0.00 0.00 1012.5
20260905091539 0 0.0 0.0 0.00 0.00 0.00 1012.4
20260905090046 0 0.0 0.0 0.00 0.00 0.00 1012.4
20260905084530 0 0.0 0.0 0.00 0.00 0.00 1012.5
20260905083034 0 0.0 0.0 0.00 0.00 0.00 1012.4
20260905081521 0 0.0 0.0 0.00 0.00 0.00 1012.4
20260905080017 0 0.0 0.0 0.00 0.00 0.00 1012.3
20260905074513 0 0.0 0.0 0.00 0.00 0.00 1012.3
20260905073009 0 0.0 0.0 0.00 0.00 0.00 1012.3
20260905071505 0 0.0 0.0 0.00 0.00 0.00 1012.4
20260905064558 0 0.0 0.0 0.00 0.00 0.00 1012.6
20260905063053 0 0.0 0.0 0.00 0.00 0.00 1012.9
20260905061549 0 0.0 0.0 0.00 0.00 0.00 1013.0
20260905060048 0 0.0 0.0 0.00 0.00 0.00 1013.3
20260905054541 0 0.0 0.0 0.00 0.00 0.00 1013.5
20260905053037 0 0.0 0.0 0.00 0.00 0.00 1013.6
20260905051532 0 0.0 0.0 0.00 0.00 0.00 1013.8
20260905050025 0 0.0 0.0 0.00 0.00 0.00 1013.8
20260905044528 0 0.0 0.0 0.00 0.00 0.00 1013.8
20260905043016 0 0.0 0.0 0.00 0.00 0.00 1013.8
20260905041512 0 0.0 0.0 0.00 0.00 0.00 1013.8
20260905040009 77 191 0.0 0.0 0.00 0.00 0.00 1 1014.1
20260905034510 78 187 0.0 0.0 0.00 0.00 0.00 1 1014.0
20260905033007 78 187 0.0 0.0 0.00 0.00 0.00 1 1014.0
20260905031614 78 187 0.0 0.0 0.00 0.00 0.00 1 1014.0
20260905030055 78 187 0.0 0.0 0.00 0.00 0.00 1 1014.0
20260905024552 78 187 0.0 0.0 0.00 0.00 0.00 1 1014.1
20260905023048 78 187 0.0 0.0 0.00 0.00 0.00 1 1014.0
20260905021542 78 186 0.0 0.0 0.00 0.00 0.00 1 1014.1
20260905020037 78 187 0.0 0.0 0.00 0.00 0.00 1 1014.2
20260905014532 78 187 0.0 0.0 0.00 0.00 0.00 1 1014.0
20260905013034 79 187 0.0 0.0 0.00 0.00 0.00 1 1014.0
20260905011528 79 187 0.0 0.0 0.00 0.00 0.00 1 1013.8
20260905010021 80 187 0.0 0.0 0.00 0.00 0.00 1 1013.8
20260905004516 80 187 0.0 0.0 0.00 0.00 0.00 4 1013.8
20260905003020 81 187 0.0 0.0 0.00 0.00 0.00 16 1013.5
20260905001509 81 187 0.0 0.0 0.00 0.00 0.00 25 1013.4
20260905000002 82 187 0.0 0.0 0.00 0.00 0.00 25 1013.3
20260904234557 83 187 0.0 0.0 0.00 0.00 0.00 36 1013.2
20260904233053 84 187 0.0 0.0 0.00 0.00 0.00 44 1013.1
20260904231552 84 163 0.0 0.0 0.00 0.00 0.00 46 1013.0
20260904230101 85 176 0.0 0.0 0.00 0.00 0.00 52 1012.7
20260904224540 86 235 0.0 0.0 0.00 0.00 0.00 56 1012.6
20260904223046 87 190 0.0 2.0 0.00 0.00 0.00 58 1012.5
20260904221530 88 293 0.0 0.0 0.00 0.00 0.00 57 1012.5
20260904220026 88 118 0.0 1.0 0.00 0.00 0.00 57 1012.5
20260904214522 89 165 0.0 1.0 0.00 0.00 0.00 60 1012.5
20260904213019 89 347 0.0 2.0 0.00 0.00 0.00 61 1012.8
20260904211514 89 203 0.0 2.0 0.00 0.00 0.00 61 1013.0